Time,TemperatureF,DewpointF,PressureIn,WindDirection,WindDirectionDegrees,WindSpeedMPH,WindSpeedGustMPH,Humidity,HourlyPrecipIn,Conditions,Clouds,dailyrainin,SoftwareType,DateUTC
2013-04-24 00:00:00,31.0,20.0,-100.00,ESE,104,16.0,25.0,63,-99.99,,,-99.99,,2013-04-24 07:00:00,
2013-04-24 01:00:00,30.0,20.0,-100.00,East,85,17.0,23.0,66,-99.99,,,-99.99,,2013-04-24 08:00:00,
2013-04-24 02:00:00,30.0,19.0,-100.00,East,90,18.0,25.0,63,-99.99,,,-99.99,,2013-04-24 09:00:00,
2013-04-24 03:00:00,30.0,20.0,-100.00,East,86,13.0,22.0,65,-99.99,,,-99.99,,2013-04-24 10:00:00,
2013-04-24 04:00:00,26.0,18.0,-100.00,East,101,5.0,14.0,70,-99.99,,,-99.99,,2013-04-24 11:00:00,
2013-04-24 05:00:00,27.0,18.0,-100.00,SE,141,5.0,7.0,68,-99.99,,,-99.99,,2013-04-24 12:00:00,
2013-04-24 07:00:00,32.0,15.0,-100.00,West,268,6.0,10.0,48,-99.99,,,-99.99,,2013-04-24 14:00:00,
2013-04-24 08:00:00,35.0,11.0,-100.00,West,269,5.0,8.0,37,-99.99,,,-99.99,,2013-04-24 15:00:00,
2013-04-24 09:00:00,34.0,14.0,-100.00,NNW,343,3.0,7.0,43,-99.99,,,-99.99,,2013-04-24 16:00:00,
2013-04-24 10:00:00,35.0,14.0,-100.00,North,349,3.0,7.0,42,-99.99,,,-99.99,,2013-04-24 17:00:00,
2013-04-24 11:00:00,36.0,12.0,-100.00,WSW,258,3.0,6.0,36,-99.99,,,-99.99,,2013-04-24 18:00:00,
2013-04-24 13:00:00,39.0,22.0,-100.00,South,172,7.0,16.0,50,-99.99,,,-99.99,,2013-04-24 20:00:00,
2013-04-24 14:00:00,42.0,23.0,-100.00,SW,236,7.0,14.0,46,-99.99,,,-99.99,,2013-04-24 21:00:00,
2013-04-24 15:00:00,44.0,24.0,-100.00,SW,215,9.0,16.0,45,-99.99,,,-99.99,,2013-04-24 22:00:00,
2013-04-24 16:00:00,41.0,26.0,-100.00,WNW,288,13.0,20.0,54,-99.99,,,-99.99,,2013-04-24 23:00:00,
2013-04-24 17:00:00,43.0,27.0,-100.00,WSW,258,17.0,23.0,52,-99.99,,,-99.99,,2013-04-25 00:00:00,
2013-04-24 18:00:00,40.0,21.0,-100.00,WSW,242,20.0,25.0,46,-99.99,,,-99.99,,2013-04-25 01:00:00,
2013-04-24 19:00:00,39.0,19.0,-100.00,WNW,288,17.0,22.0,45,-99.99,,,-99.99,,2013-04-25 02:00:00,
2013-04-24 20:00:00,32.0,17.0,-100.00,WNW,286,20.0,27.0,54,-99.99,,,-99.99,,2013-04-25 03:00:00,
2013-04-24 21:00:00,32.0,15.0,-100.00,West,276,20.0,23.0,48,-99.99,,,-99.99,,2013-04-25 04:00:00,
2013-04-24 22:00:00,34.0,11.0,-100.00,West,270,20.0,25.0,38,-99.99,,,-99.99,,2013-04-25 05:00:00,
2013-04-24 23:00:00,33.0,19.0,-100.00,West,271,21.0,25.0,55,-99.99,,,-99.99,,2013-04-25 06:00:00,